Wind_Speed
9 8 8 8 8 8 8 8 9 9 9 8 7 7 7 8 9 10 10 10 11 12 13 13 12 12 11 10 10 9 10 10 9 8 10 10 7 10 8 5 12 11 9 10 10 8 7 6 4 3 6 5 3 2 2 3 4 4 3 3 5 6 7 6 8 7 5 5 5 4 2 1 3 4 3 3 3 2 3 4 3 3 4 6 10 15 19 18
8 8 8 8 9 9 9 9 9 9 9 8 7 7 7 8 8 9 10 10 11 12 13 13 13 12 10 8 8 8 9 9 9 11 11 10 6 6 8 9 12 12 10 11 11 9 6 4 3 4 5 3 1 2 1 1 3 3 3 3 6 6 5 5 7 6 4 6 4 2 2 0 2 3 2 3 3 3 3 4 4 4 6 9 12 15 18 18
8 8 8 9 9 9 9 9 9 9 9 8 7 7 7 8 8 9 9 10 11 12 13 13 12 10 7 6 6 7 8 8 9 5 4 5 7 7 9 12 11 11 12 11 10 8 5 3 2 4 6 3 1 2 3 2 3 2 3 3 7 5 3 3 5 4 3 4 2 2 2 2 1 1 2 2 2 4 3 3 4 5 7 10 12 15 17 17
9 9 9 10 10 10 10 9 10 10 10 9 8 7 7 8 8 9 9 10 11 12 12 12 10 7 4 4 5 6 6 7 3 4 3 2 6 9 9 12 12 11 11 9 7 6 5 3 2 5 7 4 1 2 3 5 3 2 3 5 6 4 3 5 5 3 1 1 1 2 2 2 2 1 3 2 2 3 3 2 3 4 7 10 12 14 15 16
9 9 9 9 10 10 10 10 10 11 10 9 8 8 8 8 8 8 9 9 11 12 11 10 7 4 2 3 4 4 5 4 4 5 3 2 4 11 10 11 14 13 11 9 7 6 6 4 4 6 5 4 3 1 4 7 4 2 3 6 6 5 4 5 5 3 2 1 1 2 2 1 2 3 4 4 3 1 3 3 2 4 7 10 12 13 14 14
8 9 9 9 10 10 10 11 11 11 11 10 9 9 8 8 8 8 8 9 10 10 9 6 3 1 1 3 3 2 5 0 4 2 2 2 4 12 11 11 15 14 11 11 9 8 6 5 6 5 4 3 4 4 5 6 4 2 4 6 6 5 4 4 5 2 1 1 1 1 1 0 2 3 2 4 5 2 2 2 1 4 8 9 11 12 13 13
8 8 9 10 10 10 10 11 11 12 11 11 10 10 9 8 7 7 8 9 10 9 6 2 0 1 1 2 2 3 6 3 5 1 2 4 7 11 10 12 16 14 12 12 10 8 6 6 5 4 4 2 3 5 6 4 2 3 5 7 7 5 5 5 5 3 1 2 2 1 1 2 3 2 0 4 6 3 2 1 1 5 10 10 10 11 11 12
8 8 9 10 11 10 11 11 12 12 12 11 10 10 9 8 7 7 8 8 8 6 2 1 2 1 2 1 3 5 4 5 5 2 3 7 10 11 12 15 16 14 13 13 10 8 6 6 4 3 3 2 4 5 7 4 1 4 8 8 6 4 5 5 4 4 2 3 2 2 3 1 2 4 4 7 5 2 3 2 3 7 11 11 11 11 11 11
9 9 10 11 11 11 11 12 12 12 12 11 10 10 9 7 7 7 7 7 6 3 1 3 2 2 2 1 7 4 3 6 4 2 7 12 13 15 14 15 16 14 13 12 9 8 6 5 3 3 4 3 4 5 7 5 2 7 9 7 4 3 5 3 3 3 2 2 2 3 3 1 1 4 5 6 3 3 4 4 7 9 11 11 10 10 10 10
10 10 10 11 12 12 11 12 12 12 12 11 10 10 9 7 6 6 7 5 3 0 3 3 3 3 1 4 8 3 5 7 3 7 10 14 16 17 13 14 16 13 11 10 9 8 5 2 0 2 5 3 4 4 5 6 5 7 8 5 3 2 3 2 2 3 2 1 1 4 4 2 2 3 3 3 3 5 6 6 9 9 10 11 10 10 9 9
11 11 10 11 12 12 12 12 12 12 12 11 10 10 9 6 6 6 5 4 1 1 4 4 4 2 2 7 7 1 5 4 3 8 12 16 17 14 10 13 15 12 10 8 8 7 2 1 1 3 3 2 4 4 2 5 7 7 7 3 2 2 2 2 1 2 2 1 1 5 7 4 3 4 2 3 3 6 5 6 9 8 8 10 9 9 8 8
12 11 11 11 12 12 12 12 12 12 11 11 10 9 8 5 5 5 4 2 1 3 5 4 3 2 4 8 4 3 4 2 5 9 11 14 13 10 8 11 11 9 9 7 8 5 1 2 2 5 2 4 6 4 2 5 8 7 6 5 2 4 3 2 1 1 3 1 1 5 6 5 6 4 1 2 3 5 5 6 8 8 7 8 9 8 7 8
12 12 12 12 13 13 12 12 11 11 11 10 9 9 7 4 4 4 3 1 3 4 5 4 2 1 5 5 2 3 3 3 7 10 11 11 10 8 8 9 8 7 6 6 5 3 3 1 5 5 4 5 5 4 5 6 7 6 5 5 3 5 4 3 1 2 3 0 1 5 4 2 5 4 3 3 3 5 5 5 6 7 6 6 7 7 7 8
13 13 13 13 13 13 13 12 11 11 10 9 8 8 5 3 4 3 1 2 4 5 5 3 2 1 6 0 5 1 1 5 7 9 10 10 8 8 8 7 6 5 4 3 1 2 4 3 5 5 3 5 4 5 8 7 5 5 5 4 4 3 4 5 1 2 3 2 2 5 5 2 6 6 5 4 4 6 5 5 6 6 6 6 7 8 8 8
14 14 14 13 13 13 13 12 11 10 9 8 7 6 3 3 3 2 1 3 5 5 4 2 1 3 5 2 5 1 1 5 7 8 8 9 8 8 9 8 6 5 4 2 1 1 3 4 5 5 2 2 5 7 8 5 4 4 5 4 2 2 3 6 2 2 2 1 4 6 5 2 5 5 6 6 6 7 6 5 5 6 7 7 7 8 7 8
15 15 15 14 13 13 13 12 11 9 7 6 5 2 2 2 2 2 2 4 6 6 3 1 2 5 5 3 5 1 3 5 6 8 8 6 5 7 9 8 6 6 5 3 1 2 3 4 4 4 3 4 6 6 5 5 5 4 4 4 1 3 2 3 4 2 2 1 5 7 5 5 1 6 5 8 8 8 6 4 5 6 7 7 7 8 7 8
16 16 16 14 13 13 12 11 10 7 5 4 2 3 5 4 3 3 4 6 5 4 2 2 2 5 4 3 4 3 4 4 5 8 8 4 2 9 11 8 7 8 7 5 4 4 4 5 3 2 5 6 5 4 5 5 4 3 2 4 1 3 5 1 3 4 3 4 5 7 8 9 5 4 6 8 9 8 6 5 5 6 7 7 7 7 8 8
17 16 15 14 12 12 11 10 8 4 3 1 4 7 7 5 5 5 5 5 3 2 3 3 3 4 3 5 3 4 5 5 6 8 8 5 5 9 8 5 8 10 8 7 6 7 6 5 4 5 5 5 5 6 6 2 4 3 3 4 3 3 5 3 2 2 2 6 7 8 8 11 10 4 7 9 10 9 7 6 5 6 7 7 7 7 8 9
17 16 15 13 12 11 10 9 5 1 2 6 9 9 8 6 5 3 3 4 3 2 1 4 5 2 3 6 4 5 4 5 7 8 9 8 7 8 5 5 9 10 8 7 8 8 5 5 5 6 6 7 7 7 6 6 7 7 7 7 7 6 5 3 4 2 2 6 8 9 9 10 10 6 7 10 10 9 8 7 6 6 7 7 7 8 8 9
18 16 14 13 11 10 8 7 3 2 6 11 10 7 5 4 3 4 5 6 7 4 4 2 4 3 2 6 4 3 4 6 6 7 10 10 8 7 6 7 8 8 7 6 7 7 4 6 8 8 8 7 5 4 5 6 5 8 8 8 8 8 5 2 2 2 2 6 7 6 9 10 11 9 5 8 10 9 10 10 9 8 8 8 9 9 10 10
17 15 13 11 10 8 7 5 1 3 8 14 10 5 1 1 1 2 3 7 7 6 5 2 3 6 2 1 2 2 2 6 6 7 10 9 9 8 6 6 8 7 6 4 3 4 4 8 9 10 7 3 1 2 4 6 7 8 8 8 7 7 6 2 3 2 1 4 6 6 9 11 11 10 5 8 10 10 10 11 11 11 10 9 10 11 11 10
15 14 12 10 8 7 5 3 2 4 9 14 9 7 3 5 3 3 2 4 5 4 5 3 5 6 4 3 2 2 3 6 9 9 9 9 10 8 6 7 8 6 5 5 4 4 7 11 11 9 3 1 2 3 6 8 9 9 8 7 6 6 5 1 4 2 2 3 6 7 10 11 10 9 6 9 10 9 9 11 11 11 11 11 11 12 12 11
14 12 10 8 7 5 3 2 2 4 11 13 8 7 2 3 2 3 5 3 3 4 3 4 5 5 5 5 4 5 6 7 9 10 10 10 9 5 5 8 7 4 6 8 8 7 7 6 7 6 4 6 6 4 6 8 8 9 8 7 6 5 5 1 4 3 4 4 8 9 10 9 7 7 7 8 9 8 8 11 11 11 12 12 12 11 12 13
13 11 9 7 5 3 1 2 2 4 12 12 9 7 3 3 4 5 5 3 2 4 2 2 3 5 5 2 5 9 6 4 6 9 12 11 6 3 5 6 6 5 6 8 8 10 6 2 3 3 6 8 7 6 8 8 7 9 10 9 8 6 7 5 2 2 5 6 5 7 8 4 2 4 4 5 6 8 8 10 11 12 12 12 12 12 12 12
11 9 7 5 4 2 2 3 3 4 10 9 8 7 5 5 6 6 5 3 3 4 3 3 2 4 4 3 6 7 4 4 5 8 13 12 6 4 3 2 4 6 6 6 6 9 6 5 6 4 6 7 7 7 8 8 7 8 9 9 9 10 10 8 6 6 6 4 2 4 7 1 1 3 2 4 5 7 8 10 11 12 11 11 12 12 12 11
9 7 4 4 3 5 6 3 5 7 8 6 3 4 5 7 4 4 4 3 4 4 4 4 3 5 6 6 7 5 5 6 3 6 11 11 6 3 3 4 3 4 2 4 5 6 4 4 6 6 5 7 7 7 7 6 8 5 3 1 5 9 9 8 6 6 6 2 2 2 6 4 2 2 2 1 4 5 7 9 10 10 10 11 11 11 11 10
7 4 4 4 6 10 6 2 7 8 4 3 3 3 5 4 5 5 4 4 4 2 3 3 1 4 5 6 9 5 3 7 7 7 9 8 7 4 4 4 4 2 2 4 4 3 5 7 8 8 7 7 7 6 6 6 9 3 6 4 5 7 8 7 7 6 5 3 2 4 4 5 4 2 2 4 5 4 3 3 8 9 10 11 11 11 11 10
5 2 4 6 11 12 5 4 6 4 1 4 2 4 2 5 7 4 5 3 4 1 2 3 2 2 2 4 8 4 2 6 7 7 7 7 7 5 6 4 3 2 4 6 3 4 5 9 10 10 7 6 6 4 3 6 9 2 7 4 5 5 7 6 7 5 3 4 4 3 2 5 5 2 3 4 4 5 2 3 5 7 9 10 10 11 11 10
3 2 5 8 12 12 6 5 4 2 3 3 1 2 4 9 5 4 5 1 3 2 1 3 3 5 5 6 8 5 2 2 2 5 8 8 6 4 4 2 4 3 5 9 6 1 2 3 4 7 6 6 6 2 1 6 6 3 4 4 3 3 4 4 6 4 2 5 5 1 2 5 4 4 2 2 2 4 3 4 2 2 5 8 9 10 10 9
2 3 6 9 10 8 8 6 4 2 2 1 1 3 7 7 4 5 4 2 2 4 2 2 4 7 9 9 8 8 5 2 3 6 8 6 7 6 3 1 5 6 6 8 9 7 4 2 1 5 7 7 5 2 2 6 5 2 4 7 5 4 3 3 3 3 4 6 4 3 4 5 4 3 2 1 3 4 1 2 1 2 3 4 6 8 9 9
3 4 8 9 8 8 7 5 4 3 0 2 3 6 7 4 5 5 3 2 1 5 4 5 5 8 11 10 8 8 7 3 5 8 8 5 8 8 5 4 5 6 6 7 8 9 9 7 5 6 9 9 7 5 4 5 5 4 6 6 5 4 4 4 4 3 6 6 2 2 3 5 5 3 3 4 3 3 2 2 2 1 3 2 3 5 6 8
5 6 8 7 8 9 4 3 5 3 1 1 5 6 5 4 4 1 4 2 2 4 4 5 7 9 12 10 7 9 8 5 6 7 6 6 7 6 6 5 3 4 5 4 5 6 8 10 9 8 8 9 9 7 6 6 6 6 6 5 6 5 4 5 5 5 7 3 1 0 1 4 5 2 6 9 5 1 1 3 4 0 3 3 2 4 4 5
8 8 8 7 8 7 2 3 4 2 1 3 6 5 5 4 2 3 3 3 1 3 1 2 6 9 10 9 7 8 7 5 7 7 5 5 5 5 7 5 4 5 3 1 2 4 6 8 10 9 7 10 11 7 6 6 7 8 7 6 7 6 5 6 5 5 5 1 2 1 2 5 4 1 5 8 4 3 1 1 1 0 2 3 3 4 6 6
11 10 9 7 5 3 2 3 3 1 3 6 6 5 5 3 3 1 2 4 4 2 1 2 6 8 10 9 6 8 7 4 7 6 5 6 5 5 6 6 8 7 4 4 4 4 5 4 9 9 6 9 13 12 9 6 4 7 7 7 7 6 6 6 5 4 4 1 2 3 3 4 2 1 4 6 2 1 2 1 1 2 3 3 3 4 6 7
13 12 11 8 5 4 1 2 2 1 4 6 5 5 4 2 4 1 2 4 2 2 3 4 7 9 9 7 6 7 5 3 7 7 6 6 4 2 2 3 7 7 5 4 2 2 7 5 4 6 3 6 10 10 9 9 6 5 5 7 8 6 5 5 5 5 5 3 2 3 3 3 5 6 6 6 4 2 2 3 4 4 6 5 4 5 6 6
12 11 9 6 5 5 3 2 1 2 4 6 5 3 1 3 3 2 3 3 2 1 4 7 7 7 8 6 6 8 4 2 7 7 5 5 2 1 2 1 2 6 7 4 2 3 6 2 6 6 6 7 6 5 6 8 6 3 5 8 5 4 6 5 4 4 5 6 3 1 4 2 2 5 4 5 3 1 2 4 6 5 7 6 5 5 5 6
7 6 7 6 4 4 3 5 5 4 6 6 3 1 2 3 4 4 4 4 3 2 4 6 4 4 6 7 6 9 7 4 6 6 5 5 2 2 2 2 1 4 6 6 4 3 5 3 6 7 6 6 2 4 6 8 7 5 4 4 2 2 5 4 4 4 4 6 2 2 6 4 1 0 1 5 4 3 2 3 6 6 7 6 5 6 6 6
4 4 7 7 8 7 5 7 7 5 6 4 1 3 2 3 4 5 5 4 3 4 5 2 2 3 4 6 5 7 8 6 7 6 4 5 3 2 3 1 2 2 5 6 4 1 4 6 5 6 4 5 4 5 6 6 9 9 4 2 3 4 4 4 5 6 4 5 3 2 4 3 2 3 3 5 4 4 1 4 5 6 6 6 5 6 7 6
5 5 4 7 9 8 8 8 6 6 5 2 3 3 2 3 5 5 4 3 3 4 3 1 2 2 2 2 4 6 6 4 6 6 4 3 2 3 4 2 0 2 4 5 6 3 3 5 3 5 4 4 5 6 5 5 8 8 6 5 5 4 3 3 4 5 4 5 4 1 3 1 2 3 5 5 4 1 4 5 4 4 5 6 5 6 6 6
4 3 3 6 9 10 8 6 5 4 2 1 3 3 2 3 5 6 4 2 3 3 2 2 2 2 3 2 2 4 2 2 3 4 2 2 2 3 5 5 4 5 4 5 7 5 4 4 3 4 5 5 6 5 4 2 3 6 7 7 6 3 3 3 4 5 5 5 5 3 5 2 4 2 7 5 3 0 2 3 3 3 5 5 5 5 6 6
4 2 4 6 10 9 6 4 3 1 2 4 4 5 3 3 4 6 5 3 2 3 4 5 4 3 3 2 2 2 1 2 2 2 1 1 1 2 5 6 7 7 4 4 5 5 4 4 5 5 6 7 5 2 2 5 4 5 6 7 7 6 5 5 4 5 5 6 5 4 5 2 4 2 6 4 2 1 2 2 3 4 5 6 5 6 6 6
4 1 4 9 11 6 5 2 2 1 3 4 3 4 4 3 4 5 5 4 4 4 4 6 6 6 4 3 3 2 0 1 1 0 2 3 3 5 5 6 8 6 4 3 1 1 3 4 6 7 7 9 6 0 3 6 6 8 8 6 7 6 6 7 5 3 4 5 4 3 4 3 2 2 1 3 2 0 1 3 4 4 6 6 6 6 6 5
0 3 2 9 10 6 6 2 5 2 4 4 3 4 4 4 6 7 7 6 5 4 4 5 6 6 6 5 4 2 3 2 2 2 3 4 6 6 5 6 8 7 4 4 3 2 1 4 6 7 7 8 6 2 3 4 5 8 7 6 7 7 6 7 5 3 4 4 4 4 4 3 1 0 1 1 1 1 3 5 5 5 5 6 7 6 6 5
3 3 2 8 9 5 4 2 4 4 5 4 4 5 5 6 9 9 9 9 7 4 4 6 6 6 5 5 4 4 4 2 1 3 2 2 4 5 5 6 7 7 7 5 4 1 2 2 4 6 7 8 7 6 4 4 6 7 5 5 6 7 8 7 4 4 5 4 5 6 3 1 1 2 2 1 2 3 4 5 6 5 5 6 6 6 6 6
1 2 2 7 8 3 1 3 2 4 6 5 7 6 4 5 7 8 8 9 9 6 5 5 4 5 4 3 3 6 5 4 2 2 0 2 4 4 5 6 4 5 8 7 6 4 3 3 3 5 7 7 6 4 3 2 4 6 5 5 6 7 9 7 3 5 5 3 5 7 4 3 4 5 3 1 4 4 3 5 5 4 4 5 5 6 6 6
1 1 2 3 5 5 4 2 3 2 3 3 4 5 4 5 5 7 7 7 8 8 6 5 3 2 4 3 2 5 6 5 4 2 1 3 2 2 5 4 0 4 7 8 6 3 4 4 4 4 6 7 7 6 6 5 6 9 9 9 8 7 7 6 4 4 3 2 3 5 5 7 10 9 2 4 6 5 2 5 6 5 5 5 5 5 6 5
2 1 2 1 2 3 4 3 3 2 2 1 1 3 4 4 4 4 6 6 6 6 5 6 6 4 5 6 3 2 5 3 2 2 3 4 4 5 4 2 4 2 7 8 6 4 5 4 3 4 7 9 9 10 8 7 8 11 11 11 10 7 7 9 6 2 1 5 4 2 4 7 10 8 5 8 9 8 5 4 5 5 5 6 5 5 6 6
1 1 2 3 1 2 3 3 4 4 4 3 2 1 3 4 4 4 5 4 5 6 3 4 8 8 7 7 4 3 5 2 1 2 4 5 7 7 5 2 4 0 5 6 6 4 5 5 2 4 9 10 9 8 7 8 9 10 12 12 10 9 8 10 9 4 3 7 5 1 6 10 8 7 8 9 9 8 6 5 3 3 4 5 6 6 7 7
2 3 2 2 1 3 4 3 3 4 5 4 3 3 3 5 6 5 4 3 3 6 6 3 6 7 6 6 5 3 4 3 1 3 4 5 7 7 6 3 2 0 5 7 4 3 4 4 3 6 11 11 9 6 4 7 9 10 12 13 10 9 10 10 10 7 7 11 7 4 9 10 4 5 8 9 8 6 5 5 4 4 5 5 6 7 7 7
2 2 2 1 3 4 3 2 1 2 4 2 1 3 4 4 6 5 5 5 3 4 6 5 6 6 5 5 5 3 3 4 4 3 4 6 5 3 4 3 2 4 8 7 3 3 3 3 4 7 9 10 8 6 5 6 7 10 12 13 11 11 11 10 9 8 8 11 8 6 9 6 4 7 8 8 7 5 4 4 4 5 6 6 6 7 7 6
4 2 3 1 3 3 2 2 1 1 3 2 2 3 3 4 6 4 3 5 6 5 6 6 7 6 4 4 4 2 3 4 6 7 7 7 6 5 4 4 6 9 9 6 4 4 5 5 5 6 8 8 7 7 7 8 9 11 13 13 13 12 10 9 8 7 7 8 7 5 5 4 6 9 10 9 8 8 6 5 3 4 4 6 7 6 6 7
4 0 3 3 1 2 2 1 1 1 2 4 3 3 3 4 4 3 1 2 3 5 6 6 7 6 5 4 4 5 6 8 9 9 9 9 10 10 9 9 11 10 8 7 6 5 5 5 5 5 7 8 7 7 7 8 10 11 8 6 6 8 10 11 7 1 3 5 5 3 2 4 7 10 11 10 11 10 7 5 3 3 3 4 5 4 5 6
Wind_Direction
358 355 355 354 354 353 347 340 333 330 327 325 325 320 320 321 320 319 319 320 320 320 316 311 305 302 301 302 307 309 309 311 301 279 255 259 265 244 240 188 188 179 149 157 169 173 186 205 206 242 263 258 269 325 335 315 309 288 289 16 50 38 35 8 358 14 354 12 58 115 172 185 112 131 146 167 173 152 138 116 92 97 92 87 103 124 134 140
356 356 358 360 2 359 351 345 338 334 330 327 325 319 316 314 315 315 315 316 316 317 314 307 304 303 301 303 308 311 316 309 282 266 257 255 262 231 195 174 184 179 158 169 182 193 216 225 219 253 278 278 349 341 314 336 314 316 327 29 58 27 26 14 355 6 354 7 37 113 154 188 62 103 166 203 169 170 179 147 146 141 125 117 125 136 139 145
355 359 1 1 1 355 351 349 344 341 338 333 327 319 310 308 310 311 312 313 314 315 310 305 305 306 302 305 305 319 329 296 264 246 239 239 234 218 185 182 185 180 178 185 195 210 248 277 245 273 291 288 26 336 322 6 329 342 338 25 57 18 15 44 2 5 14 2 4 120 138 185 96 91 198 238 198 197 216 177 168 160 146 138 140 148 149 153
358 359 0 358 354 351 349 349 349 348 346 340 332 318 307 305 304 306 310 310 312 312 308 307 307 307 305 307 313 334 320 272 234 107 121 170 209 207 189 191 188 179 185 193 200 214 241 247 242 280 287 291 12 316 345 20 341 329 348 15 35 357 15 53 18 21 61 352 356 117 157 182 140 189 223 245 248 205 191 177 185 167 153 151 154 157 157 160
356 353 354 351 348 347 347 349 352 351 347 344 336 322 308 301 300 303 306 308 313 311 307 310 307 305 310 310 332 343 295 251 109 88 137 131 194 198 190 191 184 174 183 189 188 203 214 222 245 260 270 303 346 340 29 27 330 307 33 24 13 347 14 52 40 52 110 83 112 155 167 103 145 217 235 245 263 21 79 107 165 170 163 162 163 163 163 166
350 347 347 344 343 345 347 350 351 348 343 342 338 326 310 299 299 299 303 310 313 311 309 314 305 285 318 322 1 319 278 359 91 78 118 117 176 186 187 181 173 172 185 187 183 197 203 221 240 257 276 302 352 360 19 22 323 310 51 28 8 1 10 56 69 97 157 77 108 132 109 70 224 229 233 252 266 308 58 82 136 176 174 169 165 168 170 170
343 341 339 338 338 341 345 346 345 343 340 339 337 328 314 299 296 296 304 312 311 313 314 319 201 216 360 352 358 254 249 56 64 27 92 133 155 168 178 170 168 174 186 188 188 197 200 220 235 277 287 290 360 356 356 359 306 319 15 18 10 16 24 54 81 125 139 50 80 100 202 231 264 271 220 255 260 254 235 186 177 179 170 170 170 176 179 175
335 333 333 331 332 334 336 339 338 337 336 336 334 328 319 300 296 298 305 312 313 314 301 132 123 134 58 3 286 238 211 45 31 348 137 148 147 156 162 162 171 177 187 192 192 194 201 220 236 272 278 345 353 340 341 325 161 2 355 1 6 36 49 62 91 116 109 77 118 187 227 232 280 292 281 264 259 190 219 204 160 166 165 172 176 180 185 181
326 326 326 325 326 326 328 331 330 330 333 333 330 328 323 305 297 298 303 315 316 308 174 140 119 95 68 279 268 236 99 29 20 107 145 152 147 151 152 161 174 179 187 192 193 196 203 220 231 283 304 342 328 326 332 317 34 12 346 349 7 53 68 77 103 116 123 111 172 229 250 218 229 278 261 247 244 142 186 177 147 159 168 174 178 183 188 186
322 320 320 320 319 320 322 323 324 325 327 328 327 327 325 308 294 296 303 315 318 290 147 141 114 81 29 261 261 222 71 31 64 119 147 156 150 151 155 164 172 181 186 186 196 200 212 244 37 313 295 297 304 316 329 331 352 352 337 348 26 58 87 95 115 131 144 111 234 280 286 239 171 264 237 151 150 162 176 161 151 168 175 175 179 182 188 190
323 318 318 318 315 316 317 317 320 320 322 325 323 325 324 305 286 290 297 312 345 145 147 137 124 80 306 265 265 143 65 28 106 130 154 163 159 160 164 167 174 186 184 183 197 195 214 337 14 282 275 309 299 290 334 350 336 338 326 309 103 107 110 118 143 149 194 143 302 289 289 261 193 242 273 97 141 171 175 160 162 180 177 175 181 180 185 192
324 321 320 317 313 313 312 313 316 315 318 319 319 325 320 295 277 282 285 299 101 144 140 138 138 62 300 261 270 44 47 48 138 137 151 164 170 173 170 172 185 195 186 192 194 187 230 38 316 277 328 333 292 290 3 347 320 318 303 288 180 183 157 104 104 160 231 267 360 290 282 239 203 214 236 123 176 176 181 174 171 184 180 179 180 179 187 189
325 322 319 316 312 311 310 310 311 311 314 316 319 321 313 282 266 268 267 233 141 141 139 141 121 44 275 253 91 51 24 98 136 138 148 163 173 180 180 181 196 205 203 212 198 194 237 325 319 302 334 303 293 337 319 300 296 291 280 296 272 208 154 100 142 190 230 164 4 287 297 164 162 172 152 141 193 187 189 190 181 180 181 187 180 183 191 186
326 321 319 315 311 309 309 309 308 309 312 314 315 315 307 263 253 250 226 149 144 144 142 132 93 236 259 140 90 37 21 114 143 145 153 163 159 164 175 184 195 201 208 218 219 241 231 255 294 284 281 279 307 323 285 260 253 283 284 262 263 255 109 105 140 203 220 140 178 267 298 76 112 139 163 158 199 204 202 198 187 179 182 190 182 189 193 187
326 322 318 313 311 308 307 307 305 306 311 314 314 314 292 235 230 205 163 137 149 145 130 111 106 236 254 147 109 359 96 138 166 161 161 164 157 158 167 178 182 187 197 187 109 137 205 230 256 262 232 239 278 275 270 260 229 268 283 237 217 311 88 111 124 246 264 123 192 241 290 338 100 126 162 166 193 214 219 209 191 183 188 193 186 194 197 190
327 321 317 314 312 308 306 305 302 306 313 314 315 308 169 173 164 154 128 135 148 136 123 175 192 246 272 128 118 151 172 165 165 163 166 170 170 157 153 161 164 175 187 180 183 150 190 231 249 288 277 238 253 264 276 269 227 203 261 284 347 322 335 110 133 177 264 246 209 228 277 311 81 119 145 170 191 212 220 222 203 189 194 200 193 194 198 196
326 322 318 315 312 308 306 303 300 310 319 319 328 134 134 133 126 111 112 134 138 125 155 286 248 251 274 112 145 174 154 141 143 159 166 167 160 146 145 153 155 161 167 163 187 185 191 219 222 239 241 242 255 275 270 253 235 184 231 290 310 307 306 296 132 138 220 249 240 234 245 277 279 132 143 172 192 211 220 226 212 199 201 203 204 202 200 201
326 322 318 315 313 308 304 299 300 319 334 9 129 133 126 123 115 104 118 130 121 144 232 264 254 251 201 157 167 123 105 114 138 155 159 145 138 151 155 159 150 154 164 163 181 192 191 198 220 236 227 229 238 245 253 291 340 331 324 302 291 289 282 294 11 104 233 263 265 257 247 266 270 215 175 177 192 215 225 232 221 213 211 204 207 210 207 209
325 320 317 315 311 306 300 294 298 340 96 121 128 126 118 115 111 126 172 177 194 219 247 180 202 280 118 138 115 86 94 120 139 153 160 152 149 159 163 159 158 168 176 173 182 189 199 203 215 240 232 224 226 238 275 349 354 323 313 297 300 299 278 323 360 34 325 288 270 267 268 274 276 253 202 183 194 217 229 235 230 223 221 211 210 213 214 218
324 320 317 314 310 303 295 289 289 134 143 138 135 139 143 158 171 163 180 207 232 280 345 158 209 287 87 117 93 86 127 150 160 159 162 166 168 166 159 163 174 190 198 190 180 172 206 228 219 230 236 236 234 249 300 332 326 307 298 283 288 289 282 2 16 43 12 290 282 286 286 286 285 280 238 187 196 216 225 229 226 224 223 214 211 213 215 221
324 321 317 313 308 298 289 285 235 164 168 155 158 203 237 307 252 123 159 204 220 257 284 295 285 287 296 75 56 55 148 172 167 150 158 174 185 179 163 176 193 193 198 207 172 144 200 234 231 236 244 249 257 279 295 294 286 287 286 281 280 273 281 32 57 43 94 263 295 310 298 289 279 278 250 188 201 216 220 224 224 222 222 217 214 214 215 218
325 321 316 311 305 292 285 268 202 182 178 168 185 242 318 8 360 8 326 216 179 206 249 254 274 275 262 251 253 293 252 183 157 148 156 178 197 197 166 187 213 189 169 199 206 188 212 233 236 233 229 198 245 276 275 276 279 276 271 267 266 264 272 115 106 103 148 249 302 313 302 293 283 276 238 196 207 218 218 223 227 226 222 218 217 216 215 213
326 320 312 307 298 281 273 235 196 181 176 176 208 243 299 360 334 312 295 272 140 151 205 211 236 238 209 216 198 210 222 181 166 161 166 188 199 209 190 195 218 192 171 200 218 225 220 233 238 214 193 221 237 244 255 263 263 258 255 253 253 262 273 240 124 150 188 246 292 304 292 285 293 281 230 199 213 222 218 223 227 231 228 222 221 219 216 212
325 316 308 299 284 264 242 173 172 177 175 189 232 241 266 309 285 286 281 278 132 136 158 178 246 237 201 174 173 197 210 180 183 162 167 195 186 169 216 210 219 214 204 212 225 245 244 85 70 176 195 221 230 215 230 248 246 237 239 250 262 273 285 300 328 249 232 229 260 288 277 264 326 288 228 177 203 216 214 221 226 228 229 226 227 225 220 216
323 310 300 278 260 218 156 151 169 170 172 196 240 234 252 289 273 268 268 242 153 128 146 166 219 220 178 146 175 200 210 182 195 155 166 201 190 157 207 208 235 227 203 208 229 254 251 120 118 171 184 200 220 218 219 234 248 234 223 239 269 285 290 295 297 284 263 224 179 284 292 312 117 262 223 156 194 215 206 213 222 222 223 224 227 226 219 215
319 304 275 244 221 160 142 136 160 166 175 190 211 206 255 289 252 228 257 232 157 129 155 174 185 167 165 176 171 190 207 175 148 139 167 198 204 210 220 167 222 257 192 204 241 256 238 152 173 213 208 197 218 231 216 224 251 242 169 197 283 284 281 281 281 276 283 312 111 253 298 320 301 321 352 244 233 230 207 214 223 214 213 219 223 225 217 211
316 291 236 212 172 159 146 106 153 168 181 155 161 232 285 274 183 180 244 211 148 127 159 159 156 151 157 173 172 191 190 135 129 154 174 195 189 212 239 182 189 233 180 215 238 218 197 188 194 214 225 214 219 224 190 203 246 248 71 34 300 277 273 279 273 263 288 320 186 205 269 299 303 338 271 257 280 277 221 242 244 214 206 216 218 222 219 213
319 256 210 186 169 167 147 112 163 187 70 101 182 278 289 175 166 199 251 187 117 127 165 115 93 155 143 165 188 220 81 128 162 160 162 190 187 205 232 224 233 187 178 225 228 120 174 196 194 205 223 221 222 223 162 206 247 329 46 341 294 284 283 283 269 263 301 294 248 191 234 278 299 308 208 204 294 301 68 31 286 222 206 215 215 218 218 214
342 194 183 173 176 183 174 157 191 226 73 85 288 295 163 171 185 248 251 147 112 184 148 106 140 173 165 166 194 214 142 162 221 126 145 181 199 244 256 248 272 236 199 236 257 82 158 189 201 219 229 225 229 244 186 229 254 14 19 278 248 251 269 264 263 275 277 274 286 298 260 279 304 319 284 172 295 294 101 75 335 204 201 215 211 215 214 209
42 148 165 165 171 188 192 191 210 186 106 16 11 137 169 182 224 238 201 110 140 152 123 148 164 166 171 175 187 198 188 140 82 139 162 181 191 219 275 281 259 253 219 231 254 264 243 162 163 243 242 254 274 285 232 244 263 322 268 245 217 209 230 238 257 289 265 263 294 304 280 285 287 298 316 10 337 317 37 98 137 133 162 202 205 212 210 204
76 132 157 161 159 170 184 181 179 183 111 21 127 166 192 204 249 242 145 91 153 140 157 182 160 163 182 191 182 182 199 171 133 167 174 176 189 201 223 217 220 236 228 220 228 238 230 211 207 224 228 243 261 246 214 224 234 245 252 249 237 214 211 230 216 224 264 269 288 295 281 275 273 297 327 330 330 293 299 334 310 156 138 159 197 203 205 201
90 128 148 154 151 160 169 125 146 197 277 136 168 194 232 221 223 159 106 162 197 146 171 176 164 177 188 201 188 172 194 186 164 187 190 188 196 198 215 224 221 228 224 209 201 208 220 221 215 207 204 217 237 232 199 195 207 228 243 244 248 239 230 250 242 236 263 275 97 279 283 266 271 308 308 305 318 320 305 330 320 266 135 132 164 174 180 195
89 110 130 139 142 150 148 122 156 212 196 191 203 221 257 231 172 68 114 172 114 109 122 146 170 185 188 197 189 170 188 181 169 193 204 205 214 205 209 231 267 272 262 223 232 225 214 202 197 201 192 199 221 233 214 198 194 212 231 236 243 258 265 267 272 269 270 303 96 177 224 257 261 268 289 298 342 72 91 317 327 235 142 126 142 166 163 177
89 95 104 112 119 140 198 184 179 189 188 208 220 227 247 215 115 75 130 94 71 109 126 152 171 181 193 200 178 172 197 185 172 192 194 204 230 217 202 207 223 250 278 257 261 257 241 209 186 198 183 179 204 230 253 269 232 213 233 248 248 262 279 280 287 287 283 255 143 164 225 277 309 331 272 267 253 146 199 188 110 140 152 138 149 169 163 166
91 89 87 81 61 51 96 183 182 215 215 218 227 231 237 130 114 150 79 68 66 134 133 168 180 178 188 198 178 187 224 191 175 199 209 211 230 222 222 199 198 222 253 245 234 221 254 264 174 180 160 172 204 223 249 273 265 223 222 242 252 258 262 278 291 297 306 289 213 191 249 306 337 314 281 253 247 269 253 176 148 155 159 164 171 168 168 166
96 90 81 75 53 46 61 58 12 284 245 232 229 218 121 64 49 19 31 9 323 49 140 167 183 188 180 178 181 187 217 213 181 197 210 214 233 14 320 350 192 227 237 244 267 220 243 240 137 164 191 198 228 235 224 248 255 214 218 234 249 266 263 272 269 261 280 275 259 256 267 268 296 294 299 288 285 360 273 186 150 154 161 173 184 168 172 169
118 106 85 73 42 20 32 14 344 283 252 250 251 69 67 44 20 11 3 327 316 302 213 179 174 215 184 171 179 173 178 190 190 202 201 190 183 31 336 350 3 259 257 277 284 244 266 262 164 192 202 172 217 257 224 239 249 231 232 234 182 230 263 274 270 249 248 260 257 267 279 292 288 229 63 281 261 113 256 212 144 155 171 178 185 166 169 173
171 147 93 51 12 350 343 343 322 264 245 248 136 77 26 31 30 357 339 323 293 254 250 198 133 257 207 175 160 151 172 184 177 198 204 174 165 21 352 7 75 305 297 288 267 213 281 270 196 196 199 136 155 228 217 213 229 243 281 306 226 234 231 209 249 263 250 263 263 225 263 291 308 318 343 304 323 74 228 223 160 172 180 178 183 166 165 169
220 197 104 29 354 341 335 327 294 248 240 228 122 98 13 36 37 2 346 314 280 266 275 46 99 243 218 162 129 136 181 203 172 193 218 186 163 41 13 360 9 330 323 263 251 258 268 268 208 169 181 168 184 219 223 181 197 230 261 258 234 251 260 214 238 265 260 270 270 253 276 229 158 281 287 298 330 75 194 202 179 184 179 177 182 171 166 166
244 232 88 19 341 337 328 296 250 235 226 106 81 76 43 33 37 30 25 324 304 329 360 42 112 159 117 111 114 121 180 223 176 198 208 156 150 79 44 8 340 334 324 236 242 252 229 245 250 181 180 210 211 216 255 244 190 211 220 222 213 208 255 247 231 253 273 280 271 269 278 251 115 256 275 289 322 292 166 163 169 178 179 181 178 169 166 166
246 217 77 9 338 330 303 256 212 224 109 100 71 62 51 360 12 41 42 11 4 20 24 36 54 77 89 109 99 91 178 177 161 202 140 118 206 72 49 12 343 329 303 225 225 239 232 240 254 234 209 225 224 162 277 285 283 257 233 226 223 210 225 248 236 237 259 271 274 278 280 281 112 199 267 299 331 27 116 155 179 179 183 184 175 163 157 165
241 138 56 352 341 316 265 205 113 46 77 96 69 46 37 343 358 36 33 18 32 39 36 39 40 44 45 36 44 45 15 122 108 276 91 74 45 48 37 1 340 325 298 271 251 265 290 278 260 254 245 252 268 335 249 262 271 268 259 252 250 230 222 243 247 232 242 260 276 283 283 311 67 136 266 315 321 359 146 188 191 178 184 184 170 156 149 157
244 88 53 346 343 292 250 122 114 106 73 92 96 57 46 25 29 39 31 23 28 31 43 50 36 38 41 22 20 28 8 21 46 46 83 91 70 55 22 350 342 340 333 325 353 65 262 265 259 260 256 257 260 207 200 239 241 243 244 247 259 256 245 257 275 269 239 236 245 248 245 260 316 100 210 224 232 215 195 206 206 187 181 179 167 155 150 153
56 88 70 1 352 286 251 91 110 110 87 99 101 80 73 50 34 35 38 34 29 24 49 60 41 37 44 25 31 43 10 347 82 63 57 87 78 60 18 352 341 358 21 2 344 344 249 249 256 266 257 238 224 198 184 198 222 239 239 233 253 263 257 261 274 258 244 242 258 267 273 281 272 257 249 265 261 234 204 204 216 201 179 176 168 158 155 156
84 148 100 26 19 13 29 31 47 102 107 105 86 68 77 79 44 30 40 43 37 30 45 62 34 24 39 30 51 55 23 359 34 70 49 46 84 83 20 355 335 9 21 354 325 295 275 286 278 274 265 249 242 243 248 245 245 252 247 236 245 250 248 250 254 245 255 331 307 277 292 326 282 241 221 299 297 269 219 200 210 208 183 175 167 159 159 164
250 157 118 64 50 57 75 42 1 78 108 105 85 47 40 95 76 31 30 42 43 38 42 54 29 3 29 15 34 59 34 16 25 43 11 10 47 48 358 343 331 8 347 327 321 288 263 276 270 269 275 276 287 300 308 314 282 255 238 226 230 241 242 238 249 256 246 265 266 250 258 284 279 263 249 19 343 331 297 219 206 198 187 173 164 162 161 167
298 22 30 46 82 82 95 76 28 47 61 9 59 29 30 85 99 47 37 38 34 27 39 55 41 30 34 13 349 37 27 13 22 20 360 351 347 334 321 210 157 333 312 314 343 332 278 265 237 253 272 277 286 293 296 294 276 265 254 236 225 230 237 234 243 289 264 246 258 248 225 245 269 289 3 20 351 347 337 262 218 198 193 174 162 162 162 167
360 66 30 327 316 70 74 48 28 55 75 63 59 40 47 70 74 60 50 43 35 15 3 62 50 38 34 13 338 344 360 328 189 31 360 345 338 328 310 189 154 236 310 328 7 356 289 272 265 291 289 285 285 288 287 278 269 267 263 252 232 222 232 245 253 250 232 256 277 332 244 249 271 312 3 11 346 345 338 297 254 201 190 167 164 173 176 178
57 92 69 319 334 51 51 21 5 64 71 60 58 46 43 62 71 67 33 8 63 34 3 34 52 29 23 12 346 343 355 326 285 50 19 343 330 319 310 289 172 94 336 335 359 6 305 289 314 311 297 287 278 274 275 271 267 260 254 249 240 234 235 247 260 255 247 261 260 219 244 261 298 349 351 350 341 341 327 297 263 214 193 172 176 185 184 184
31 51 41 95 87 56 40 21 338 106 82 44 67 58 36 47 60 66 34 3 28 44 12 18 25 360 355 359 338 347 30 350 316 329 340 328 322 320 318 314 317 333 329 327 339 346 315 299 312 309 291 276 265 252 248 257 263 264 256 243 235 239 240 243 254 251 247 259 257 231 246 269 23 18 344 337 342 341 324 299 251 216 199 184 191 193 183 186
10 9 326 320 84 26 348 45 348 201 91 53 67 66 43 49 40 29 44 26 16 26 17 3 354 338 314 306 315 351 29 337 299 296 303 300 297 306 306 302 315 321 316 313 320 312 298 291 294 287 276 270 259 247 255 267 267 261 255 247 237 233 237 243 242 238 250 264 265 259 270 299 360 355 337 338 350 351 346 330 269 227 211 202 207 202 182 183
351 324 296 284 99 18 317 95 331 275 73 46 50 59 42 56 40 333 323 65 31 24 14 349 337 328 297 291 335 1 344 317 298 293 292 281 276 279 275 274 285 292 291 296 304 297 290 293 287 276 274 269 258 258 277 281 267 254 256 273 264 248 254 257 241 219 343 316 282 272 326 340 346 343 335 338 348 352 351 343 318 295 267 233 230 223 187 179
Height
802 801 800 799 799 798 797 797 796 795 795 794 793 793 792 792 791 790 789 789 788 787 786 785 784 784 783 783 782 782 781 781 781 780 778 775 773 774 774 775 776 777 778 779 781 780 780 779 779 778 776 774 773 773 772 771 768 772 780 785 792 795 794 794 791 789 790 788 786 786 785 790 793 788 782 782 786 788 787 788 786 783 781 781 783 785 789 793
802 801 800 799 799 798 797 797 796 795 794 794 793 792 792 791 790 790 789 788 787 786 785 784 783 783 782 782 782 781 781 780 779 777 774 772 772 773 774 775 776 777 778 779 779 778 778 778 777 776 776 774 773 772 774 772 771 778 782 785 793 794 789 786 786 786 786 788 787 786 785 788 790 788 783 788 794 789 792 793 789 790 786 784 785 787 791 792
802 801 800 800 799 798 797 796 796 795 794 793 792 792 791 790 790 789 788 788 787 785 784 783 783 782 782 782 781 781 780 779 778 774 771 771 772 772 773 774 775 777 778 779 778 777 777 776 776 776 777 777 773 773 776 773 774 778 781 788 792 788 784 782 783 785 784 785 787 787 786 788 787 784 784 790 793 791 794 794 792 795 791 787 786 787 790 791
802 801 800 799 799 798 797 796 795 794 793 793 792 791 791 790 789 789 787 787 786 785 784 783 782 782 782 781 781 781 780 781 777 770 770 771 771 771 773 774 775 777 778 779 778 778 777 776 776 776 779 779 773 772 777 775 777 778 780 790 788 781 784 782 781 783 783 783 785 787 788 790 785 782 785 789 795 794 790 787 788 792 790 788 787 785 788 790
802 801 800 799 798 798 797 796 795 794 793 792 791 791 790 789 788 788 787 786 785 784 783 782 782 781 782 781 782 780 781 786 777 768 771 771 770 771 772 773 775 777 778 779 779 778 778 776 776 777 780 781 776 775 778 774 775 780 779 782 781 778 785 781 778 783 782 782 785 788 790 789 784 784 785 787 795 793 783 781 781 784 785 785 785 785 786 788
801 800 800 799 798 797 796 795 794 793 793 791 791 790 789 789 787 787 786 785 784 783 782 782 782 781 782 781 781 781 784 787 775 768 772 770 770 771 772 774 774 777 778 779 778 777 778 776 779 781 781 781 781 781 780 773 774 783 780 776 776 777 781 779 778 784 782 783 788 788 787 784 786 788 784 785 789 783 775 775 776 778 780 781 782 784 786 788
801 800 799 798 797 797 795 795 794 793 792 791 790 789 788 788 787 787 785 785 784 783 782 782 782 782 782 781 782 780 780 778 770 770 772 770 772 771 772 774 775 778 778 778 777 777 777 779 781 782 782 783 783 782 779 774 774 783 783 777 776 776 778 777 779 783 781 784 786 784 785 786 791 790 784 785 782 774 772 771 773 775 777 780 783 784 786 787
800 799 798 797 797 796 795 794 793 792 791 790 789 788 788 787 786 785 784 784 783 782 782 782 782 782 782 782 781 778 776 773 770 771 771 771 772 771 774 775 776 778 777 777 776 775 777 780 781 779 785 785 782 782 777 776 778 782 783 778 776 777 778 778 779 782 782 784 783 783 787 788 788 786 786 785 776 772 772 770 772 775 777 781 784 785 786 786
799 798 797 797 796 795 794 793 792 791 790 789 789 788 787 786 785 785 784 783 782 782 782 782 782 782 782 782 779 779 776 772 771 771 771 772 773 773 775 775 777 778 776 777 774 775 777 779 779 778 784 784 780 782 776 781 786 782 781 778 777 779 779 780 782 783 784 783 783 786 790 787 783 784 786 780 772 771 771 771 774 776 780 782 784 785 785 786
798 797 796 795 794 794 793 792 791 790 789 789 788 787 786 785 785 784 783 783 782 782 782 782 783 782 783 781 780 782 776 771 772 771 772 773 773 774 776 776 777 777 776 776 774 775 775 776 776 773 779 781 780 781 777 782 784 778 778 778 779 781 780 781 784 783 783 783 784 788 790 785 782 786 788 777 769 770 771 774 776 778 781 782 783 784 785 786
797 796 795 794 793 793 791 791 790 789 788 787 787 786 785 785 784 784 783 783 782 782 783 782 783 783 783 781 781 780 773 771 773 772 773 774 775 776 776 777 777 777 776 776 776 775 774 775 772 773 780 780 779 780 777 778 777 775 778 780 780 781 781 781 784 784 783 785 784 785 789 785 785 789 786 775 769 769 772 776 778 779 780 781 783 784 784 786
796 794 793 793 792 791 790 790 788 788 787 786 786 785 784 784 783 783 783 783 783 783 783 783 784 783 783 781 778 774 772 773 773 772 774 774 776 777 776 778 777 777 777 776 776 775 776 775 773 779 782 779 781 783 780 774 774 776 776 783 784 782 786 785 784 784 784 788 782 783 794 791 789 788 779 772 769 769 773 776 778 779 780 781 782 783 784 784
795 793 792 791 790 789 789 788 787 786 786 785 785 784 784 783 783 783 782 783 783 783 783 783 783 783 785 781 773 771 772 773 773 773 774 775 776 777 777 778 778 778 778 777 776 777 779 778 777 780 778 780 785 781 777 772 775 778 775 783 785 785 792 787 784 785 785 788 781 786 801 793 785 783 774 771 770 771 776 777 777 779 780 780 781 783 783 783
793 792 791 790 789 788 787 786 786 785 784 784 784 783 783 782 782 782 782 783 783 783 784 784 784 784 784 777 771 772 772 772 774 773 774 775 776 777 778 778 778 779 779 778 778 778 779 778 778 779 777 780 780 776 777 776 776 780 780 783 784 789 795 787 783 786 789 788 779 790 802 789 781 780 774 773 772 773 777 776 776 778 780 780 781 782 782 782
792 791 789 788 787 786 786 785 784 783 783 783 782 782 782 782 782 782 783 783 783 784 784 784 784 784 782 775 770 772 772 773 774 774 775 775 775 776 777 778 779 779 780 780 780 779 779 779 780 782 780 777 778 783 786 781 777 781 790 791 785 789 794 788 784 785 790 788 780 792 800 785 778 778 773 773 773 773 776 775 774 777 779 780 780 781 781 781
791 789 788 787 785 785 784 783 783 782 782 782 782 782 781 782 782 782 783 783 783 784 784 785 783 783 783 776 771 772 772 772 772 774 775 775 775 775 776 778 779 780 780 780 780 780 779 780 780 782 782 781 784 789 790 789 785 782 791 796 790 791 793 789 788 783 785 789 785 792 798 787 777 775 773 773 773 773 774 774 773 776 778 778 779 779 780 781
789 788 786 785 784 783 782 782 781 781 781 781 781 781 782 782 782 783 783 783 785 784 784 784 782 783 781 773 772 773 769 770 772 773 774 775 775 775 777 777 778 779 779 780 781 780 780 781 783 783 783 785 785 789 800 804 796 786 788 793 791 793 794 792 792 785 783 789 789 789 793 788 777 773 775 773 772 773 773 773 772 774 776 776 776 777 778 779
787 786 784 783 782 782 781 780 780 780 781 781 781 782 782 782 783 784 784 784 784 784 786 784 782 788 785 773 772 772 768 770 772 773 775 775 775 776 776 775 776 778 781 783 782 781 783 782 785 789 788 789 789 793 805 805 798 796 797 796 794 793 792 792 792 787 784 788 790 788 789 785 774 770 773 772 771 772 772 770 770 771 772 773 774 775 776 776
786 784 783 782 781 780 780 779 779 780 780 780 781 782 782 783 784 784 785 785 784 784 785 781 779 785 783 772 768 768 768 771 772 773 774 774 776 775 775 775 775 778 784 789 787 783 785 787 792 798 796 792 790 790 794 794 796 800 798 798 800 797 791 789 788 783 782 790 789 786 786 780 773 768 768 770 770 772 772 769 769 770 770 771 773 773 773 774
784 782 781 780 779 779 778 778 779 779 779 780 781 782 783 782 783 784 783 782 778 775 775 773 772 774 774 770 767 768 770 771 771 771 773 774 774 775 774 775 777 781 786 789 789 782 784 795 799 797 793 786 784 785 787 790 793 796 797 796 796 795 791 786 787 784 783 792 787 780 783 779 774 769 764 767 770 772 773 771 771 770 769 770 772 773 772 771
782 781 779 778 778 777 777 777 777 778 779 779 781 781 777 775 778 780 778 777 772 768 771 770 768 771 771 769 768 768 770 772 770 769 773 773 772 778 779 778 785 790 786 785 786 783 788 800 796 785 782 781 783 786 788 791 793 795 797 796 793 792 788 783 788 787 785 793 786 778 783 780 773 768 763 765 771 773 771 770 771 769 768 768 769 770 769 768
780 779 778 777 777 776 776 776 777 777 778 779 780 777 771 771 774 774 773 775 771 768 771 770 770 771 768 768 769 768 772 776 775 772 772 773 773 780 781 782 789 789 785 787 790 793 797 798 787 777 778 782 786 787 789 793 794 795 793 795 796 788 783 784 789 788 787 793 787 780 785 779 768 764 762 765 769 768 764 764 766 765 766 767 766 767 766 767
779 777 776 776 775 775 775 775 776 776 777 778 778 775 772 772 772 771 772 775 774 770 770 771 772 771 769 770 768 769 774 776 779 776 770 773 776 778 781 785 787 787 789 792 793 798 800 791 778 774 779 786 789 789 792 794 793 793 791 793 793 783 783 791 792 790 788 789 787 787 788 777 766 764 762 762 763 762 762 761 760 760 762 763 762 762 763 765
777 775 775 774 774 775 774 775 775 775 776 776 776 774 772 773 772 773 772 773 776 772 768 769 769 769 769 768 766 770 773 770 773 773 769 773 776 777 780 782 786 791 790 788 790 793 792 783 775 777 782 785 790 792 793 795 792 787 785 788 788 781 782 785 784 785 785 787 789 790 790 777 768 772 768 763 764 763 763 763 762 760 758 758 758 758 759 760
774 774 773 773 773 774 773 775 775 774 776 775 775 773 772 773 771 772 774 776 780 774 769 770 769 768 765 765 767 766 769 770 768 767 766 769 774 779 782 780 785 792 789 787 792 792 786 778 777 784 786 784 790 791 789 791 791 785 780 780 781 780 780 780 780 784 788 793 790 789 798 789 769 769 769 763 765 765 763 764 764 762 759 759 759 757 757 758
773 772 772 772 772 773 774 774 773 775 775 773 773 772 772 773 770 773 776 779 783 778 774 773 772 770 765 767 766 763 775 777 764 762 766 768 768 774 783 783 784 789 786 786 790 787 782 777 778 785 786 786 790 789 783 784 791 789 778 773 777 779 781 781 782 788 792 794 788 785 799 799 776 768 768 763 764 763 762 763 762 761 761 760 758 757 756 758
771 770 770 771 771 773 773 772 773 774 773 772 772 772 772 771 770 773 778 788 790 778 775 775 772 770 766 765 762 769 787 779 765 766 765 768 767 770 783 786 785 787 782 787 794 786 779 781 783 784 785 787 790 788 779 780 790 789 775 773 778 779 780 780 781 786 785 784 786 782 788 799 791 774 766 764 765 762 761 765 763 759 760 759 757 756 755 756
769 769 769 770 771 772 771 772 774 772 771 772 771 771 772 770 772 773 783 802 796 774 771 773 768 765 764 763 762 771 779 771 775 776 763 766 770 771 784 784 783 786 780 788 798 783 774 782 783 782 787 788 784 779 773 778 786 780 772 775 777 777 778 776 778 781 779 784 793 784 782 800 799 772 758 762 767 766 764 767 766 759 758 757 756 755 754 754
768 768 768 769 771 771 771 772 773 771 771 771 770 772 771 770 773 775 786 801 790 769 768 770 769 768 766 768 769 770 770 768 778 775 763 769 770 771 782 780 778 784 780 783 790 780 773 775 774 777 785 784 776 770 770 777 781 774 772 776 774 775 775 775 779 779 783 795 798 785 782 800 802 776 762 766 768 766 762 762 762 757 755 755 753 753 753 752
767 767 768 769 771 772 772 773 772 771 771 770 771 771 770 773 777 785 798 798 782 772 770 769 772 771 770 777 777 773 772 772 773 770 770 773 770 770 774 772 774 782 781 780 783 778 770 768 770 775 778 774 769 769 770 773 774 773 775 777 775 776 775 777 779 779 794 805 795 782 780 793 804 784 764 766 765 759 757 759 760 756 753 753 751 751 750 750
767 767 768 769 770 771 772 771 771 772 771 771 771 769 772 777 779 791 801 786 774 776 773 772 774 771 773 779 779 776 776 775 772 775 779 777 777 779 779 779 780 784 785 783 781 775 770 773 773 770 767 766 770 773 772 770 771 775 778 778 782 785 783 786 785 789 808 811 791 781 778 789 805 789 762 757 753 750 754 757 757 755 754 753 751 749 748 748
767 767 768 769 769 771 771 770 771 771 771 771 771 769 776 785 785 789 789 777 778 782 773 772 774 772 774 775 775 776 777 777 774 775 778 779 781 781 782 784 782 789 794 786 780 777 773 771 766 764 762 764 773 778 775 773 774 778 779 782 794 800 801 806 802 798 806 800 785 782 787 794 797 780 761 754 747 746 751 752 752 752 753 753 751 750 749 748
768 768 768 769 770 771 771 770 770 771 771 770 770 771 779 792 794 787 778 777 782 776 767 770 771 770 774 777 777 774 775 778 775 774 775 775 780 778 776 775 774 786 792 784 784 784 778 768 761 768 767 760 768 778 779 777 775 778 779 784 797 806 817 825 814 805 804 795 784 783 792 797 788 769 757 752 746 745 747 747 748 750 751 753 751 748 748 748
769 769 769 770 770 771 770 770 770 770 770 769 771 777 786 796 793 782 777 776 774 769 768 771 771 772 775 776 775 772 776 780 773 775 778 778 783 782 775 774 773 778 783 784 785 785 790 783 766 766 766 758 762 766 765 764 767 770 765 771 785 791 808 819 811 808 806 796 791 792 795 793 785 770 753 745 743 742 744 744 745 749 749 751 750 748 748 748
770 770 770 770 770 770 770 770 770 769 769 769 773 781 790 793 786 779 778 775 770 770 771 770 771 778 779 775 771 768 774 779 774 775 780 779 781 780 775 775 773 774 781 788 785 780 792 786 760 755 757 756 760 756 751 761 771 765 756 770 780 773 781 795 794 793 794 796 795 794 791 777 766 757 742 739 741 740 744 744 745 750 749 750 751 749 748 747
770 769 770 771 771 770 770 770 769 769 768 769 777 783 785 784 781 777 776 773 772 773 774 774 774 779 781 778 776 772 771 775 776 778 779 777 777 778 777 774 771 772 776 782 782 780 789 781 757 755 758 752 755 753 749 762 773 767 766 775 768 754 762 783 792 784 788 805 798 786 785 771 763 761 748 744 748 747 749 746 745 750 749 750 752 749 748 747
770 769 770 770 771 770 770 769 768 768 767 770 780 785 781 778 776 774 772 771 771 771 774 779 778 777 780 779 778 776 775 776 777 779 779 779 781 780 779 775 772 772 769 773 777 774 782 781 760 756 763 753 748 753 752 752 758 768 775 767 754 756 762 776 796 795 798 812 798 783 787 781 780 778 758 750 753 752 752 747 746 750 750 750 749 747 748 746
769 768 768 769 770 769 768 768 767 766 766 772 783 786 779 776 774 771 771 770 770 770 772 776 777 775 776 777 777 774 775 779 779 778 778 780 783 782 779 778 775 772 767 771 778 771 776 786 767 751 760 757 748 757 764 756 751 759 762 754 758 778 782 781 796 802 805 813 802 788 787 784 786 780 762 757 754 752 755 751 747 749 748 749 747 746 747 746
767 767 769 770 769 768 767 768 766 764 768 776 785 785 779 776 773 768 769 770 770 771 772 773 773 774 772 773 776 774 776 778 775 776 778 780 784 781 777 779 777 772 769 771 777 772 772 788 781 756 753 757 755 761 769 766 757 756 757 754 756 769 776 777 782 785 794 807 805 797 793 786 778 766 758 758 751 749 754 749 745 746 744 746 746 745 746 747
765 767 772 770 767 767 766 765 764 766 773 779 781 781 779 777 772 767 766 769 769 770 772 772 770 774 775 773 774 774 776 776 772 774 777 778 783 783 777 778 778 774 770 769 773 771 770 784 788 766 753 762 765 760 760 762 760 762 767 766 763 763 766 770 772 770 779 795 801 803 803 787 765 754 752 750 746 745 746 745 745 744 741 742 742 743 745 746
763 770 774 768 767 767 764 766 770 770 775 779 779 780 780 778 774 770 766 765 767 766 767 770 770 773 776 775 775 775 775 776 774 774 778 778 782 786 779 776 778 775 773 773 772 771 772 779 784 774 765 767 762 748 747 752 754 758 761 759 760 762 768 782 787 773 769 781 785 792 800 781 752 745 747 743 743 743 742 744 744 741 741 741 740 742 744 744
765 774 774 766 766 765 763 771 775 771 775 780 781 780 779 778 775 773 769 765 767 766 764 769 773 775 777 777 777 776 775 778 778 777 780 779 780 784 779 774 774 771 771 774 770 766 770 775 780 778 768 760 750 741 744 748 747 751 753 748 749 753 762 783 794 780 771 776 772 777 795 781 747 739 744 741 742 743 741 742 741 740 740 739 740 742 742 743
768 774 771 765 765 763 766 777 778 775 779 781 779 778 777 778 776 774 773 771 772 771 771 775 776 777 780 779 777 778 779 782 784 780 781 782 780 780 777 773 773 769 769 775 772 768 772 778 782 779 765 753 746 742 744 745 748 755 754 748 749 751 753 761 768 768 773 780 776 781 797 784 752 740 743 741 741 742 741 741 739 739 738 738 740 742 743 744
770 771 768 766 764 761 769 781 781 782 784 780 780 781 778 779 780 779 779 779 777 776 778 781 779 778 780 778 777 780 782 786 787 782 781 783 781 778 775 774 774 772 773 778 776 773 777 780 783 786 783 774 767 763 761 756 754 755 751 749 751 751 751 755 757 762 772 775 773 782 793 780 754 743 741 741 742 741 740 739 737 737 738 739 740 742 743 745
772 773 770 766 763 763 772 779 778 782 786 783 785 786 782 782 783 781 781 782 779 778 781 783 781 779 779 778 779 781 780 783 787 784 782 781 779 777 775 774 775 773 774 776 772 772 778 780 781 791 797 794 791 787 779 767 758 753 751 753 754 752 755 760 763 771 780 779 775 781 786 775 756 747 744 742 743 742 739 738 737 736 738 738 739 742 743 744
774 779 778 772 767 768 775 777 775 780 784 785 789 789 787 788 785 780 780 783 782 780 782 783 781 780 782 782 785 787 783 782 784 786 785 784 782 778 774 774 775 775 775 774 769 770 777 778 778 787 791 786 785 781 770 762 762 761 757 755 755 753 753 757 766 775 779 782 782 776 774 774 763 749 742 743 745 744 740 738 737 737 738 738 739 741 742 743
777 784 787 784 780 778 779 779 779 782 783 786 792 794 790 790 789 784 782 784 784 783 784 784 783 786 790 789 790 792 790 787 787 788 789 787 783 778 772 771 775 776 774 772 767 770 781 781 776 781 781 773 771 768 761 761 766 763 757 754 753 754 754 757 766 770 769 779 784 771 768 776 767 747 742 747 749 747 742 738 736 737 737 737 739 741 742 743
782 789 789 789 791 789 788 787 785 784 785 786 792 795 793 791 793 793 790 786 785 785 787 790 790 790 792 793 793 795 794 793 793 792 792 790 787 783 776 771 773 773 772 771 768 772 784 782 773 775 776 768 764 763 761 763 764 760 757 754 751 753 757 759 760 758 762 774 778 771 770 770 758 744 744 749 749 746 744 738 734 735 736 736 739 742 742 743
785 789 789 788 792 794 793 792 789 787 789 791 794 796 795 795 797 797 794 792 791 789 790 795 797 794 792 793 794 798 799 799 799 798 796 795 793 790 786 780 775 771 771 774 773 774 782 781 774 775 777 769 763 762 762 763 763 761 757 752 750 752 754 756 755 752 755 760 759 762 769 762 749 746 747 745 744 743 743 739 736 736 737 738 740 741 741 742
790 793 792 789 791 795 794 792 790 790 792 794 797 800 798 798 800 799 796 797 799 797 794 798 800 796 795 795 795 798 800 801 802 800 798 799 796 792 791 788 781 776 776 778 777 776 781 783 775 775 779 772 762 760 761 761 763 763 758 751 750 753 753 754 755 752 755 757 752 755 764 759 747 745 745 742 740 740 742 742 739 737 737 738 740 740 740 741
797 798 796 793 796 800 797 794 793 793 795 797 800 802 801 801 802 801 799 799 800 801 799 800 801 797 795 796 797 798 798 799 801 798 795 798 796 792 792 787 784 786 785 782 782 780 783 783 775 776 785 777 762 761 762 758 759 762 760 754 751 752 754 752 750 749 753 757 756 759 767 767 755 747 746 742 739 740 743 743 740 737 736 737 739 738 738 740
800 799 797 795 799 801 799 796 795 796 801 804 803 804 804 804 802 802 803 801 799 800 801 801 801 800 797 797 798 799 798 797 797 794 791 792 790 789 789 785 784 789 789 786 787 784 783 786 780 780 789 780 764 762 763 763 770 772 763 756 754 752 750 747 745 748 751 754 760 765 768 765 757 751 750 747 744 745 746 744 742 741 738 737 737 736 736 738